TimeCEST,TemperatureF,Dew PointF,Humidity,Sea Level PressureIn,VisibilityMPH,Wind Direction,Wind SpeedMPH,Gust SpeedMPH,PrecipitationIn,Events,Conditions,WindDirDegrees,DateUTC
12:15 AM,53.6,32.0,44,29.77,-9999.0,North,3.5,-,N/A,,Clear,350,2011-10-08 22:15:00
12:45 AM,51.8,32.0,47,29.77,-9999.0,NNE,2.3,-,N/A,,Clear,20,2011-10-08 22:45:00
1:15 AM,51.8,33.8,50,29.77,-9999.0,NE,4.6,-,N/A,,Clear,40,2011-10-08 23:15:00
1:45 AM,50.0,33.8,54,29.77,-9999.0,ENE,4.6,-,N/A,,Clear,60,2011-10-08 23:45:00
2:15 AM,50.0,32.0,50,29.77,-9999.0,ENE,4.6,-,N/A,,Clear,60,2011-10-09 00:15:00
2:45 AM,50.0,33.8,54,29.77,6.2,ENE,3.5,-,N/A,,Partly Cloudy,70,2011-10-09 00:45:00
3:15 AM,50.0,35.6,58,29.77,6.2,North,1.2,-,N/A,,Partly Cloudy,350,2011-10-09 01:15:00
3:45 AM,50.0,35.6,58,29.74,6.2,North,1.2,-,N/A,,Partly Cloudy,360,2011-10-09 01:45:00
4:15 AM,50.0,37.4,62,29.74,6.2,NNW,8.1,-,N/A,,Partly Cloudy,340,2011-10-09 02:15:00
4:45 AM,50.0,37.4,62,29.74,6.2,ENE,5.8,-,N/A,,Partly Cloudy,60,2011-10-09 02:45:00
5:15 AM,48.2,35.6,62,29.74,6.2,NE,4.6,-,N/A,,Scattered Clouds,40,2011-10-09 03:15:00
5:45 AM,48.2,35.6,62,29.74,6.2,North,5.8,-,N/A,,Partly Cloudy,360,2011-10-09 03:45:00
6:15 AM,48.2,37.4,66,29.77,6.2,NE,3.5,-,N/A,,Partly Cloudy,40,2011-10-09 04:15:00
6:45 AM,48.2,37.4,66,29.77,6.2,East,2.3,-,N/A,,Partly Cloudy,80,2011-10-09 04:45:00
7:15 AM,46.4,37.4,71,29.77,6.2,North,3.5,-,N/A,,Scattered Clouds,10,2011-10-09 05:15:00
7:45 AM,48.2,37.4,66,29.77,6.2,North,5.8,-,N/A,,Scattered Clouds,360,2011-10-09 05:45:00
8:15 AM,50.0,39.2,66,29.77,6.2,NNE,4.6,-,N/A,,Scattered Clouds,30,2011-10-09 06:15:00
8:45 AM,51.8,39.2,62,29.77,6.2,NNE,6.9,-,N/A,,Partly Cloudy,30,2011-10-09 06:45:00
9:15 AM,53.6,37.4,54,29.77,6.2,NNE,11.5,-,N/A,,Partly Cloudy,20,2011-10-09 07:15:00
9:45 AM,57.2,35.6,44,29.80,6.2,North,9.2,20.7,N/A,,Partly Cloudy,10,2011-10-09 07:45:00
10:15 AM,57.2,35.6,44,29.80,6.2,North,12.7,26.5,N/A,,Partly Cloudy,360,2011-10-09 08:15:00
10:45 AM,59.0,33.8,39,29.80,6.2,North,13.8,27.6,N/A,,Partly Cloudy,360,2011-10-09 08:45:00
11:15 AM,60.8,32.0,34,29.80,6.2,North,15.0,-,N/A,,Partly Cloudy,360,2011-10-09 09:15:00
11:45 AM,62.6,33.8,34,29.80,6.2,NNE,13.8,-,N/A,,Partly Cloudy,30,2011-10-09 09:45:00
12:15 PM,64.4,28.4,26,29.83,6.2,ENE,17.3,29.9,N/A,,Partly Cloudy,60,2011-10-09 10:15:00
12:45 PM,64.4,26.6,24,29.83,6.2,NE,17.3,32.2,N/A,,Partly Cloudy,40,2011-10-09 10:45:00
1:15 PM,64.4,32.0,30,29.83,6.2,NE,19.6,32.2,N/A,,Partly Cloudy,40,2011-10-09 11:15:00
1:45 PM,64.4,21.2,19,29.83,6.2,NNE,13.8,27.6,N/A,,Partly Cloudy,30,2011-10-09 11:45:00
2:15 PM,64.4,21.2,19,29.83,6.2,North,16.1,33.4,N/A,,Scattered Clouds,10,2011-10-09 12:15:00
2:45 PM,64.4,26.6,24,29.86,6.2,North,15.0,27.6,N/A,,Scattered Clouds,360,2011-10-09 12:45:00
3:15 PM,64.4,24.8,22,29.86,6.2,NNE,15.0,28.8,N/A,,Scattered Clouds,20,2011-10-09 13:15:00
3:45 PM,62.6,26.6,26,29.86,6.2,North,12.7,-,N/A,,Scattered Clouds,10,2011-10-09 13:45:00
4:15 PM,62.6,26.6,26,29.86,6.2,NNE,12.7,26.5,N/A,,Scattered Clouds,20,2011-10-09 14:15:00
4:45 PM,62.6,26.6,26,29.86,6.2,North,13.8,25.3,N/A,,Partly Cloudy,10,2011-10-09 14:45:00
5:15 PM,62.6,24.8,24,29.86,6.2,North,12.7,25.3,N/A,,Partly Cloudy,10,2011-10-09 15:15:00
5:45 PM,62.6,26.6,26,29.89,6.2,North,15.0,26.5,N/A,,Partly Cloudy,10,2011-10-09 15:45:00
6:15 PM,60.8,24.8,25,29.92,6.2,North,15.0,26.5,N/A,,Partly Cloudy,350,2011-10-09 16:15:00
6:45 PM,59.0,26.6,29,29.92,6.2,North,15.0,27.6,N/A,,Partly Cloudy,350,2011-10-09 16:45:00
7:15 PM,57.2,30.2,36,29.92,6.2,North,15.0,-,N/A,,Partly Cloudy,350,2011-10-09 17:15:00
7:45 PM,57.2,30.2,36,29.95,6.2,North,16.1,29.9,N/A,,Partly Cloudy,350,2011-10-09 17:45:00
8:15 PM,57.2,30.2,36,29.95,6.2,North,13.8,-,N/A,,Partly Cloudy,350,2011-10-09 18:15:00
8:45 PM,55.4,32.0,41,29.98,-9999.0,North,10.4,-,N/A,,Clear,360,2011-10-09 18:45:00
9:15 PM,53.6,33.8,47,29.98,-9999.0,North,8.1,-,N/A,,Clear,360,2011-10-09 19:15:00
9:45 PM,53.6,33.8,47,30.01,-9999.0,NNW,9.2,-,N/A,,Clear,340,2011-10-09 19:45:00
10:15 PM,51.8,33.8,50,30.01,-9999.0,NNW,10.4,-,N/A,,Clear,340,2011-10-09 20:15:00
10:45 PM,51.8,35.6,54,30.04,-9999.0,North,8.1,-,N/A,,Clear,350,2011-10-09 20:45:00
11:15 PM,51.8,33.8,50,30.04,-9999.0,North,10.4,-,N/A,,Clear,350,2011-10-09 21:15:00
11:45 PM,50.0,33.8,54,30.04,-9999.0,North,11.5,-,N/A,,Clear,350,2011-10-09 21:45:00